Orbital Elements at Epoch 2459000.5 (2020-May-31.0) TDB
Reference: JPL 27 (heliocentric ecliptic J2000)
Element | Value | Uncertainty (1-sigma) | Units |
e | .1260290461568794 | 4.2516e-08 | |
a | 2.76550424146121 | 1.4732e-08 | au |
q | 2.416970379767049 | 1.2153e-07 | au |
i | 9.108864839838429 | 4.48e-06 | deg |
node | 245.9190858761021 | 2.9766e-05 | deg |
peri | 144.9202739207348 | 3.528e-05 | deg |
M | 83.57809343569549 | 1.9369e-05 | deg |
tp | 2458610.513225373593 (2019-May-07.01322537) | 8.9284e-05 | TDB |
period | 1679.80906352603 4.60 | 1.3422e-05 3.675e-08 | d yr |
n | .21431007119603 | 1.7124e-09 | deg/d |
Q | 3.114038103155371 | 1.6588e-08 | au |
|
| | Orbit Determination Parameters
Additional Information
|